CanjetBLOCKVirtuelBLOCKQcBLOCKBLOCKBLOCKBLOCKBLOCKBLOCKBLOCKBLOCKBLOCKBLOCKBLOCKvolsBLOCKavecBLOCKFS-kACARS2019-05-27BLOCK10colon10am

volsBLOCKBLOCKBLOCKBLOCKBLOCKpilotesBLOCKBLOCKBLOCKBLOCKBLOCKBLOCKBLOCKBLOCKtypeBLOCKBLOCKdepBLOCKBLOCKarrBLOCKBLOCKBLOCKBLOCKBLOCKaltBLOCKBLOCKBLOCKBLOCKBLOCKgsBLOCKBLOCKBLOCKBLOCKstatut

CJA820StephaneBLOCKGB738CYQB-MDPP33999ft463kts11colon57am
9999LouisBLOCKBB788CYYZ-KCLT9865ft321kts11colon41am









BLOCKAppuyerBLOCKsurBLOCKF5BLOCKpourBLOCKactualiserBLOCKBLOCKBLOCKMiseBLOCKaBLOCKjourcolonBLOCK10colon10colon01amCanjetBLOCKvirtuelBLOCKQC

Boeing dans le trouble

Publié par Yvan Roy le 2019-05-14


 

                                                 


 


Bienvenue chez Canjetvirtuel-Q

Publié par Michel Ayotte le 2013-06-14

 

Canjetvirtuel-Québec est une compagnie aérienne virtuelle qui a été fondée par 2 passionnés de la simulation de vol.

Elle est opérée avec les Boeing 737. Exceptionnelement et pour votre plaisir les Boeing 747,757,767 et 777 sont autorisés pour des vols de plus de 1,5 heure.

Ces appareils pouvant faire des vols cargos ou des vols passagers,que ce soit au Canada, Europe, États-Unis, Mexique et Caraïbes.

Vous trouverez votre place comme pilote chez nous!



Avis

Aux fins de la simulation de vol seulement. CanjetVirtuel Québec n'est en aucun cas affilié avec n'importe quelle compagnie aérienne du monde réel. CanjetVirtuel Québec est un site à but non lucratif gérée par des amateurs de simulation de vol. Toutes les images sont la propriété exclusive de leurs propriétaires respectifs.
| propulsé par phpVMS, © 2013-2019.

Notice

For flight simulation purposes only. CanjetVirtuel Quebec is in no way affiliated with any real world airline. CanjetVirtuel Quebec is a non-profit site run by flight simulation enthusiasts. All images are the sole property of their respective owners.
| powered by phpVMS, © 2013-2019.

Affiliations

Vatsim

Les statistiques du site

Nombre de pilotes: 14
Total des vols effectués: 4464
Trajets disponibles: 543
Passagers transportés: 957241
Total des heures de vol: 13355
Distance totale (NM): 5685890
Pilotes en ligne: 1

Nouvelles

Boeing dans le trouble
05/14/2019
Bienvenue chez Canjetvirtuel-Q
06/14/2013

METAR

CYHZ 271332Z 18009KT 15SM SCT006 OVC024 09/08 A2990 RMK SF4SC4 SLP129

CYQB 271300Z 29005KT 250V340 30SM SCT038 SCT140 BKN180 BKN210 10/02 A3001 RMK SC3AC1AC1CC1 SLP166

CYUL 271351Z 36013KT 30SM -RA FEW030 OVC058 11/04 A3007 RMK CU1SC8 CU TR SLP184

CYYZ 271300Z 06008KT 15SM FEW260 17/09 A3005 RMK CI1 CI TR SLP177 DENSITY ALT 900FT